Location: *
(58.4167°N, 22.5000°E)
Time: 15:26:43
(UTC+00:00)

YAOGAN 1 - Pass Details

Date: 22 September 2019
Orbit: 619 x 621 km, 98.0° (Epoch: 16 October)

Event Time Altitude Azimuth Distance (km) Brightness Sun altitude
Rises 17:23:24 0° 187° (S) 2,891 5.9 -7.7°
Reaches altitude 10° 17:25:43 10° 196° (SSW) 1,989 5.2 -8.0°
Maximum altitude 17:29:43 36° 264° (W) 1,000 4.4 -8.5°
Drops below altitude 10° 17:33:44 10° 331° (NNW) 2,003 5.9 -9.0°
Sets 17:36:06 0° 340° (NNW) 2,914 6.6 -9.3°
